STARLINK-1193, 45100

Orbit data source: Space-Track

STARLINK-1193, 45100 is a payload satellite owned by SpaceX/Seattle (US) in LEO that was launched on Wed, 29 Jan 2020 UTC via an FALCON 9 launch vehicle from the Air Force Eastern Test Range (AFETR). Payload-class satellites include a variety of spacecraft equipped with specific instruments for various scientific and technological missions. These include communications satellites like Starlink; space stations such as the ISS; scientific satellites like the Hubble; Earth observation satellites from companies like Planet Labs, Umbra, and HawkEye 360; GPS; miniature CubeSats for education and research; and military/defense satellites.

Loading next visibility...
Identifier
45100, 2020-006BJ
Orbit
LEO
Country
Flag of USUS
Related business
Manufacturer
SpaceX/Seattle
Mission
Operational Commercial Communications
Bus & Motor
STARLINK, Unknown motor
Mass
260 kg wet, ~248 kg dry
Launch date (UTC)
2020-01-29 (6 years ago)
Launch vehicle
FALCON 9
Launch site
Air Force Eastern Test Range (AFETR)
Object type
Payload
Rocket body
Debris
Shape & HBR
Box + 1 Pan, 10.1 m
Radar Cross Section
13.562 m², Large (>1 m²)

Expand to show TLE details & history
Last TLE update: 15 hours ago

TLE from 15 hours ago
0 STARLINK-1193
1 45100U 20006BJ  25286.42032533  .00022085  00000-0  14953-2 0  9994
2 45100  53.0531 187.7358 0000899  66.7270 293.3814 15.06440710314828
Epoch: 2025-10-13T10:05Z
TLE epoch observation values (Epoch: 2025-10-13T10:05:16.108Z)
Latitude
0.00001°
Longitude
14.19533°
Altitude
547.719 km
Speed
7.589 km/s
True Right ascension
12h 30m 56s
True Declination
0° 00' 00"
Sunlit
Object was in daylight at epoch
Visualization orbit readout
Latitude
Unknown
Longitude
Unknown
Altitude
Unknown
Speed
Unknown
Apparent Right ascension
Unknown
Apparent Declination
Unknown
Sunlit
N/A
Visualization observer readout
Local Sidereal Time
19:52:15
Azimuth
Unknown
Elevation
Unknown
Doppler factor
Unknown
Orbital elements
Apogee altitude
547.98 km
Perigee altitude
546.735 km
Semi-major axis
6,925.495 km
Eccentricity
0.00009
Inclination
53.0531°
RAAN
187.7358°
Arg. of periapsis
66.727°
True anomaly
293.37194°
Mean anomaly
293.3814°
Eccentric anomaly
293.37667°
Mean motion
3.76588 °/min
Orbital period
95.6 mins
BSTAR
0.0014953
Loading maneuver chart data...
Computing Atmospheric mass density...
Loading historical data...
Loading historical data...
Loading historical data...
Loading historical data...
Loading historical data...
Loading historical data...
Loading historical data...

Documentation

Showing up to 5 results
|